TimeMDT,TemperatureF,Dew PointF,Humidity,Sea Level PressureIn,VisibilityMPH,Wind Direction,Wind SpeedMPH,Gust SpeedMPH,PrecipitationIn,Events,Conditions,WindDirDegrees,DateUTC
12:35 AM,46.9,27.0,46,30.14,-9999.0,SSW,6.9,-,N/A,,Clear,200,2012-10-13 06:35:00
12:55 AM,46.9,27.0,46,30.14,-9999.0,WSW,3.5,-,N/A,,Clear,240,2012-10-13 06:55:00
1:15 AM,46.6,27.0,46,30.14,-9999.0,Calm,Calm,-,N/A,,Clear,0,2012-10-13 07:15:00
1:35 AM,45.7,27.7,49,30.14,-9999.0,Calm,Calm,-,N/A,,Clear,0,2012-10-13 07:35:00
1:55 AM,46.9,26.6,45,30.14,-9999.0,North,4.6,-,N/A,,Clear,360,2012-10-13 07:55:00
2:15 AM,46.0,27.0,47,30.14,-9999.0,SW,4.6,-,N/A,,Clear,230,2012-10-13 08:15:00
2:35 AM,46.0,27.9,49,30.14,-9999.0,NNE,3.5,-,N/A,,Clear,20,2012-10-13 08:35:00
2:55 AM,44.8,27.9,52,30.14,-9999.0,West,6.9,-,N/A,,Clear,280,2012-10-13 08:55:00
3:15 AM,44.4,26.8,50,30.14,-9999.0,NW,3.5,-,N/A,,Clear,320,2012-10-13 09:15:00
3:35 AM,45.1,25.7,47,30.13,-9999.0,Calm,Calm,-,N/A,,Clear,0,2012-10-13 09:35:00
3:55 AM,45.9,25.3,45,30.13,-9999.0,North,4.6,-,N/A,,Clear,10,2012-10-13 09:55:00
4:15 AM,44.4,26.4,49,30.13,-9999.0,NNW,3.5,-,N/A,,Clear,340,2012-10-13 10:15:00
4:35 AM,42.8,27.5,55,30.13,-9999.0,Calm,Calm,-,N/A,,Clear,0,2012-10-13 10:35:00
4:55 AM,42.4,27.9,56,30.13,-9999.0,Calm,Calm,-,N/A,,Clear,0,2012-10-13 10:55:00
5:15 AM,42.3,28.6,58,30.14,-9999.0,NNE,3.5,-,N/A,,Clear,20,2012-10-13 11:15:00
5:35 AM,41.5,29.1,61,30.14,-9999.0,North,3.5,-,N/A,,Clear,350,2012-10-13 11:35:00
5:55 AM,41.9,29.5,61,30.15,-9999.0,Calm,Calm,-,N/A,,Scattered Clouds,0,2012-10-13 11:55:00
6:15 AM,41.5,29.1,61,30.14,-9999.0,Calm,Calm,-,N/A,,Scattered Clouds,0,2012-10-13 12:15:00
6:35 AM,41.2,29.3,63,30.14,-9999.0,Calm,Calm,-,N/A,,Clear,0,2012-10-13 12:35:00
6:55 AM,40.6,29.1,64,30.14,-9999.0,Calm,Calm,-,N/A,,Clear,0,2012-10-13 12:55:00
7:15 AM,41.0,28.8,62,30.14,-9999.0,Calm,Calm,-,N/A,,Clear,0,2012-10-13 13:15:00
7:55 AM,42.3,28.8,59,30.14,-9999.0,Calm,Calm,-,N/A,,Clear,0,2012-10-13 13:55:00
8:35 AM,43.0,30.9,62,30.14,-9999.0,NE,3.5,-,N/A,,Clear,50,2012-10-13 14:35:00
8:55 AM,43.3,31.1,62,30.15,-9999.0,ENE,4.6,-,N/A,,Scattered Clouds,70,2012-10-13 14:55:00
9:35 AM,43.7,31.6,63,30.17,-9999.0,NE,5.8,-,N/A,,Mostly Cloudy,50,2012-10-13 15:35:00
9:55 AM,44.6,32.0,61,30.18,-9999.0,NE,4.6,-,N/A,,Scattered Clouds,50,2012-10-13 15:55:00
10:15 AM,45.3,32.4,61,30.18,-9999.0,ENE,5.8,-,N/A,,Scattered Clouds,60,2012-10-13 16:15:00
10:35 AM,45.1,32.7,62,30.18,-9999.0,ENE,6.9,-,N/A,,Mostly Cloudy,70,2012-10-13 16:35:00
10:55 AM,45.3,33.1,62,30.18,-9999.0,ENE,5.8,-,N/A,,Mostly Cloudy,70,2012-10-13 16:55:00
11:15 AM,45.5,32.9,61,30.18,-9999.0,ENE,5.8,-,N/A,,Mostly Cloudy,70,2012-10-13 17:15:00
11:35 AM,46.0,32.5,59,30.17,-9999.0,ENE,4.6,-,N/A,,Mostly Cloudy,60,2012-10-13 17:35:00
12:15 PM,48.0,32.4,55,30.17,-9999.0,Calm,Calm,-,N/A,,Mostly Cloudy,0,2012-10-13 18:15:00
12:35 PM,48.0,31.6,53,30.16,-9999.0,ENE,4.6,-,N/A,,Scattered Clouds,60,2012-10-13 18:35:00
12:55 PM,48.4,31.3,52,30.15,-9999.0,ENE,3.5,-,N/A,,Scattered Clouds,70,2012-10-13 18:55:00
1:15 PM,50.4,31.1,48,30.15,-9999.0,ESE,4.6,-,N/A,,Scattered Clouds,110,2012-10-13 19:15:00
1:35 PM,52.2,31.5,45,30.15,-9999.0,Calm,Calm,-,N/A,,Scattered Clouds,0,2012-10-13 19:35:00
1:55 PM,52.5,30.6,43,30.15,-9999.0,North,3.5,-,N/A,,Scattered Clouds,360,2012-10-13 19:55:00
2:15 PM,53.6,27.5,37,30.14,-9999.0,WSW,5.8,-,N/A,,Scattered Clouds,240,2012-10-13 20:15:00
2:35 PM,53.8,27.3,36,30.14,-9999.0,NW,5.8,-,N/A,,Scattered Clouds,320,2012-10-13 20:35:00
2:55 PM,53.8,27.0,36,30.14,-9999.0,Calm,Calm,-,N/A,,Clear,0,2012-10-13 20:55:00
3:15 PM,55.4,28.0,35,30.14,-9999.0,ENE,4.6,-,N/A,,Clear,70,2012-10-13 21:15:00
3:35 PM,56.7,29.3,35,30.14,-9999.0,West,3.5,-,N/A,,Clear,280,2012-10-13 21:35:00
3:55 PM,56.5,28.4,34,30.14,-9999.0,North,8.1,-,N/A,,Clear,360,2012-10-13 21:55:00
4:15 PM,56.8,28.9,34,30.15,-9999.0,NNW,6.9,-,N/A,,Clear,330,2012-10-13 22:15:00
4:35 PM,56.3,28.2,34,30.15,-9999.0,West,3.5,-,N/A,,Clear,270,2012-10-13 22:35:00
4:55 PM,56.3,28.6,35,30.16,-9999.0,NW,4.6,-,N/A,,Clear,310,2012-10-13 22:55:00
5:15 PM,55.6,28.4,35,30.16,-9999.0,NW,3.5,-,N/A,,Clear,320,2012-10-13 23:15:00
5:35 PM,55.4,28.6,36,30.17,-9999.0,Calm,Calm,-,N/A,,Clear,0,2012-10-13 23:35:00
6:35 PM,52.9,30.6,43,30.19,-9999.0,Calm,Calm,-,N/A,,Clear,0,2012-10-14 00:35:00
6:55 PM,52.7,30.7,43,30.20,-9999.0,Calm,Calm,-,N/A,,Clear,0,2012-10-14 00:55:00
7:35 PM,50.7,32.0,49,30.22,-9999.0,SSE,3.5,-,N/A,,Clear,150,2012-10-14 01:35:00
8:15 PM,50.9,32.2,49,30.24,-9999.0,WSW,5.8,-,N/A,,Clear,240,2012-10-14 02:15:00
8:35 PM,50.5,32.0,49,30.25,-9999.0,WNW,4.6,-,N/A,,Clear,300,2012-10-14 02:35:00
8:55 PM,48.9,32.9,54,30.26,-9999.0,Calm,Calm,-,N/A,,Clear,0,2012-10-14 02:55:00
9:15 PM,48.6,33.3,56,30.27,-9999.0,Calm,Calm,-,N/A,,Clear,0,2012-10-14 03:15:00
9:55 PM,48.2,33.1,56,30.29,-9999.0,Calm,Calm,-,N/A,,Clear,0,2012-10-14 03:55:00
10:35 PM,47.1,33.8,60,30.30,-9999.0,SE,3.5,-,N/A,,Clear,140,2012-10-14 04:35:00
10:55 PM,47.3,33.8,59,30.30,-9999.0,Calm,Calm,-,N/A,,Clear,0,2012-10-14 04:55:00
11:15 PM,47.3,33.8,59,30.30,-9999.0,Calm,Calm,-,N/A,,Clear,0,2012-10-14 05:15:00
11:35 PM,46.2,33.8,62,30.31,-9999.0,SSW,4.6,-,N/A,,Clear,210,2012-10-14 05:35:00
11:55 PM,46.8,33.8,61,30.31,-9999.0,Calm,Calm,-,N/A,,Clear,0,2012-10-14 05:55:00